Simultaneous Nadir Overpasses (SNOs) Predictions

Prediction of SNOs between AQUA and METOP-B Satellite Orbit:

Table of predicted SNOs for the next 14.0 days since TLE Epoch: 9/17/2022
Index Date (AQUA) Time (AQUA) Lat,Lon (AQUA) SZA (AQUA ) Date (METOP-B) Time (METOP-B) Lat,Lon (METOP-B) SZA (METOP-B ) Distance(km) Time Diff (sec)
1 09/17/2022 18:33:32 74.01,-103.47 71.91 09/17/2022 18:32:53 74.03,-103.54 71.94 3.36 39
2 09/17/2022 19:22:59 -74.10, 63.96 107.98 09/17/2022 19:23:33 -74.12, 64.00 107.97 2.12 34
3 09/20/2022 13:17:34 -74.00, 155.57 107.03 09/20/2022 13:16:39 -74.01, 155.47 107.01 3.30 55
4 09/20/2022 14:07:03 74.12, -37.07 73.11 09/20/2022 14:07:17 74.10, -36.97 73.09 3.50 14
5 09/20/2022 14:56:40 -74.71, 129.13 106.25 09/20/2022 14:57:46 -74.73, 131.99 106.29 83.76 66
6 09/23/2022 08:01:36 73.99, 54.58 74.04 09/23/2022 08:00:23 73.94, 54.36 74.00 9.20 73
7 09/23/2022 08:51:03 -74.08,-137.98 105.86 09/23/2022 08:51:02 -74.08,-137.96 105.86 0.63 1
8 09/23/2022 09:40:31 74.15, 29.50 74.24 09/23/2022 09:41:40 74.17, 29.59 74.24 3.22 69
9 09/26/2022 02:45:26 -73.41, -45.14 105.48 09/26/2022 02:44:20 -73.37, -47.90 105.47 87.69 66
10 09/26/2022 03:35:05 74.06, 121.08 75.20 09/26/2022 03:34:46 74.04, 121.03 75.19 2.30 19
11 09/26/2022 04:24:32 -74.14, -71.47 104.70 09/26/2022 04:25:26 -74.14, -71.40 104.70 2.22 54
12 09/28/2022 22:19:06 -74.08, 20.05 103.70 09/28/2022 22:18:31 -74.07, 20.16 103.71 3.60 35
13 09/28/2022 23:08:33 74.10,-172.37 76.34 09/28/2022 23:09:10 74.10,-172.44 76.33 2.23 37



Historial Predications of SNOs between AQUA and METOP-B
